Location: A�t Za�rour
(32.6195°N, 5.3251°W)
Time: 13:20:23
(UTC+00:00)

Daily predictions for brighter satellites

Satellite Brightness Start Highest point End
(mag) Time Altitude Azimuth Time Altitude Azimuth Time Altitude Azimuth
BREEZE-M DEB (TANK) 3.9 19:51:00 10° SE 19:51:43 11° ESE 19:52:30 10° ESE
IRS-1A Rocket 4.5 19:46:05 10° SSE 19:51:45 61° ENE 19:57:20 10° N
Ariane Rocket 3.1 19:47:14 10° SSE 19:52:14 63° ENE 19:57:15 10° N
CZ-4 R/B 4.2 19:49:29 10° SW 19:52:37 20° W 19:55:46 10° NW
Tsikada Rocket 4.3 19:48:50 10° S 19:54:59 74° W 20:01:09 10° N
CZ-2C R/B 3.3 19:50:10 10° SSE 19:55:42 89° ENE 20:01:29 10° NNW
DMSP B5D2-2 4.5 19:51:12 10° NNE 19:56:13 44° E 20:01:10 10° S
STARLINK-1116 4.4 19:54:11 10° NNW 19:58:06 40° NE 20:01:59 10° ESE
CZ-2C R/B 4.1 19:54:44 10° NNE 19:59:04 42° E 20:03:26 10° S
Cosmos 1954 Rocket 4.1 19:54:22 10° NNW 19:59:39 72° ENE 20:04:56 10° SSE
Cosmos 371 Rocket 3.7 19:56:59 10° SSW 20:01:48 68° WNW 20:06:39 10° N
Cosmos 2221 Rocket 3.7 19:59:02 10° S 20:03:29 63° E 20:07:58 10° NNE
Cosmos 1544 3.0 19:59:58 10° N 20:03:34 84° E 20:07:09 10° S
NOSS 2-2 (D) 2.9 20:02:57 10° SSW 20:06:36 78° ESE 20:10:13 10° NNE
Aureole 2 Rocket 2.0 20:04:06 10° S 20:07:13 70° ESE 20:10:12 10° NNE
STARLINK-1094 4.1 20:04:02 10° NNW 20:08:04 50° NE 20:11:46 12° ESE
ARGOS 3.2 20:03:00 10° SSE 20:08:23 88° ENE 20:13:48 10° NNW
MONITOR-E 3.9 20:06:01 10° SSE 20:08:29 50° ENE 20:10:58 10° N
MOS 1 Rocket 3.0 20:05:56 10° NNE 20:10:13 78° E 20:14:32 10° S
STARLINK-1117 3.9 20:09:00 10° NW 20:13:04 56° NE 20:16:34 13° ESE
CZ-2C R/B 2.8 20:08:19 10° NNE 20:13:54 64° E 20:19:23 10° S
STARLINK-52 3.1 20:11:00 10° SSW 20:14:05 46° SE 20:17:10 10° NE
Cosmos 1943 Rocket 2.9 20:11:18 10° SSE 20:16:03 30° ESE 20:20:51 10° NE
SL-4 R/B 2.5 20:11:42 10° SW 20:16:13 78° NW 20:20:59 10° NE
BREEZE M DEB (TANK) 3.8 20:15:54 10° WNW 20:17:58 21° SW 20:19:45 10° S
STARLINK-1078 3.8 20:13:56 10° NW 20:18:03 62° NE 20:21:21 15° SE
ASTEX 1 3.7 20:13:45 10° S 20:18:36 70° W 20:23:31 10° N
SPOT 3 Rocket 4.0 20:14:02 10° SE 20:18:53 45° ENE 20:23:47 10° N
GPS 2-04 Rocket1 2.5 20:16:53 10° WNW 20:20:18 71° NNE 20:23:16 14° E
Cosmos 676 Rocket 4.4 20:15:16 10° NNW 20:20:31 68° WSW 20:25:46 10° S
Okean 2 Rocket 3.2 20:18:08 10° N 20:22:28 55° E 20:26:31 11° SSE
NOSS 2-2 (E) 4.3 20:19:32 10° SW 20:22:57 45° WNW 20:26:30 10° NNE
STARLINK-1108 3.7 20:18:54 10° NW 20:23:02 70° NE 20:26:09 17° SE
Cosmos 304 Rocket 3.7 20:18:31 10° SSW 20:23:17 87° ESE 20:28:06 10° NNE
Sich 1 Rocket 3.8 20:19:05 10° N 20:23:39 80° W 20:28:11 10° S
H-2A R/B 3.0 20:20:52 10° S 20:25:42 46° W 20:30:42 10° NNW
FALCON 9 DEB 3.6 20:23:17 10° SSW 20:26:26 35° SE 20:29:36 10° ENE
ATLAS CENTAUR R/B 3.6 20:28:18 11° E 20:28:18 11° E 20:28:44 10° E
Resurs 01 Rocket 2.6 20:24:28 16° SE 20:27:22 31° ENE 20:31:17 10° N
STARLINK-1071 3.6 20:23:52 10° NW 20:28:01 79° NE 20:30:56 19° SE
Cosmos 1437 Rocket 2.6 20:25:04 10° S 20:28:49 70° E 20:32:37 10° NNE
SWIFT 4.1 20:28:45 10° SW 20:31:23 16° S 20:32:34 14° SSE
STARLINK-1110 3.6 20:27:21 10° NW 20:31:30 85° NE 20:34:17 20° SE
Cosmos 1833 Rocket 3.1 20:27:06 10° NNW 20:32:38 62° WSW 20:38:09 10° S
Cosmos 1300 Rocket 3.6 20:29:10 10° N 20:33:34 66° E 20:37:12 15° SSE
ASTRO E2 2.7 20:33:23 10° W 20:37:18 63° S 20:39:37 23° ESE
STARLINK-1124 3.6 20:33:49 10° NW 20:37:58 83° SW 20:40:29 23° SE
Cosmos 2151 Rocket 3.7 20:33:46 10° N 20:38:14 57° E 20:41:23 18° SSE
Cosmos 2279 Rocket 4.0 20:32:12 10° N 20:38:23 65° E 20:43:46 14° SSE
Cosmos 2297 4.2 20:33:41 10° SSW 20:39:17 64° WNW 20:44:58 10° NNE
Meteor 1-12 Rocket 4.2 20:35:50 10° N 20:41:33 86° E 20:46:59 12° S
Resurs 1-3 3.6 20:38:14 17° SSE 20:41:36 72° ENE 20:45:59 10° N
USA 267 4.1 20:36:08 10° SSE 20:42:15 42° SW 20:48:24 10° WNW
STARLINK-1122 3.7 20:38:48 10° NW 20:42:56 74° SW 20:45:16 25° SSE
Sakura Rocket 4.2 20:41:02 10° W 20:46:28 57° S 20:51:35 20° ESE
Cosmos 2369 Rocket 2.6 20:42:11 10° S 20:47:28 42° ESE 20:52:45 10° NE
STARLINK-1126 3.8 20:43:29 10° NW 20:47:34 66° SW 20:49:45 26° SSE
Cosmos 2082 Rocket 2.3 20:42:34 10° NNW 20:48:17 79° WSW 20:52:40 17° SSE
BREEZE-M DEB 4.2 20:47:09 10° W 20:49:02 25° NNW 20:51:22 10° NNE
Cosmos 1674 Rocket 3.5 20:44:52 10° S 20:49:14 88° E 20:53:39 10° N
Cosmos 1378 Rocket 3.5 20:45:57 15° S 20:49:31 64° E 20:53:51 10° NNE
ATLAS 3B CENTAUR R/B 4.2 20:31:43 10° WSW 20:52:17 72° S 21:00:02 16° E
STARLINK-1082 3.9 20:48:48 10° NW 20:52:52 57° SW 20:54:51 28° SSE
ATLAS 2AS CENTAUR R/B 3.3 20:45:56 10° S 20:53:13 45° ESE 21:00:42 10° NE
Abrixas rocket 3.4 20:50:51 10° NNW 20:53:28 28° NNE 20:54:17 24° ENE
STARLINK-1100 4.1 20:53:48 10° NW 20:57:49 51° SW 20:59:37 29° S
Meteor 1-15 Rocket 4.5 20:54:00 10° N 20:59:48 57° E 21:02:53 27° SSE
STARLINK-1083 4.3 20:58:48 10° WNW 21:02:46 45° SW 21:04:23 29° S
STARLINK-1125 4.5 21:03:50 10° WNW 21:07:43 40° SW 21:09:10 29° S
Meteor 1-23 Rocket 4.4 21:04:49 10° SSW 21:10:29 75° W 21:16:08 10° N
Cosmos 1092 Rocket 4.2 21:08:42 29° SE 21:11:27 48° E 21:17:17 10° NNE
Landsat 7 4.5 21:11:34 33° ESE 21:12:43 39° ENE 21:17:07 10° N
Lacrosse 5 3.2 21:09:18 10° WNW 21:13:41 30° WSW 21:16:19 19° SSW
Cosmos 1066 Rocket 4.3 21:08:26 10° SSW 21:13:48 71° W 21:19:09 10° N
Cosmos 1975 Rocket 3.6 21:14:15 37° E 21:14:27 37° E 21:18:30 10° NNE
ISS -1.6 21:16:34 10° W 21:18:51 17° SW 21:19:16 17° SW
STARLINK-1097 4.3 21:16:05 10° NNW 21:20:02 43° NE 21:20:53 37° ENE
Cosmos 1378 3.0 21:19:13 52° S 21:20:03 87° W 21:23:47 10° N
COSMOS 2455 3.5 21:21:21 32° ESE 21:21:21 32° ESE 21:26:30 10° NE
STARLINK-1099 4.1 21:21:01 10° NNW 21:25:02 48° NE 21:25:40 43° ENE
Cosmos 1805 3.5 21:25:27 10° N 21:29:06 54° ENE 21:29:06 54° ENE
H-2A ROCKET BODY 3.5 21:24:27 10° SW 21:29:27 51° SSE 21:52:03 10° E
STARLINK-1104 3.9 21:25:58 10° NW 21:30:02 53° NE 21:30:28 50° ENE
H-2A R/B 4.2 21:27:38 10° SW 21:29:39 15° SSW 21:29:39 15° SSW
VEP-3 3.5 21:27:28 10° SW 21:32:00 29° S 21:32:00 29° S
STARLINK-1144 3.8 21:30:55 10° NW 21:35:00 60° NE 21:35:14 58° ENE
Spot 2 Rocket 3.4 21:34:57 52° SSE 21:36:14 84° ENE 21:41:17 10° N
Milstar 3 Cent rocket 3.7 21:29:03 10° WSW 21:36:30 59° SSE 21:52:37 10° E
Meteor 1-22 Rocket 4.4 21:31:37 10° N 21:37:13 53° E 21:38:09 48° ESE
Cosmos 1842 3.6 21:39:48 52° NE 21:39:48 52° NE 21:42:57 10° NNE
STARLINK-1103 3.6 21:35:51 10° NW 21:39:59 67° NE 21:40:00 67° NE
SAR-Lupe-2 4.4 21:39:18 10° N 21:42:46 48° WNW 21:43:20 43° WSW
Cosmos 1733 4.0 21:40:20 10° N 21:43:08 41° NE 21:43:08 41° NE
STARLINK-1101 3.6 21:40:49 10° NW 21:44:47 74° NNE 21:44:47 74° NNE
Meteor 2-13 Rocket 4.5 21:44:29 50° SE 21:45:47 61° E 21:51:51 10° NNE
Cosmos 2263 4.2 21:43:19 26° SSW 21:46:36 80° WNW 21:52:14 10° NNE
Orbus 7S 4.5 21:43:40 10° WSW 21:46:49 45° SSW 21:46:49 45° SSW
Okean 1 Rocket 3.9 21:44:47 10° NNW 21:49:01 46° W 21:49:59 39° SW
SPOT 5 3.4 21:48:42 47° E 21:49:06 48° ENE 21:54:12 10° N
STARLINK-1102 3.7 21:45:48 10° NW 21:49:36 73° NNW 21:49:36 73° NNW
Cosmos 1455 Rocket 4.0 21:46:28 10° N 21:49:41 36° NE 21:49:41 36° NE
Cosmos 2026 Rocket 3.9 21:48:44 48° SSE 21:50:35 77° E 21:56:56 10° N
CARTOSAT-1 4.0 21:54:32 51° NE 21:54:32 51° NE 21:58:13 10° N
Cosmos 1271 Rocket 4.4 21:56:17 26° NE 21:56:17 26° NE 21:58:13 10° NNE
CENTAUR R/B 3.8 21:46:35 10° NNW 21:54:32 46° NE 21:57:56 33° ESE
STARLINK-1111 3.9 21:50:48 10° NW 21:54:24 66° NW 21:54:24 66° NW
Terra 2.7 21:58:22 37° ENE 21:58:22 37° ENE 22:02:18 10° N
IGS 5A 3.9 21:59:17 56° W 21:59:17 56° W 22:03:16 10° NNW
Cosmos 1943 Rocket 4.0 21:54:57 10° WSW 21:59:41 29° WNW 22:04:29 10° N
STARLINK-1073 4.1 21:55:45 10° NW 21:59:09 58° WNW 21:59:09 58° WNW
BREEZE-M DEB (TANK) 3.5 21:45:15 10° SW 22:00:46 81° SE 22:05:08 10° NE
ATLAS 3B R/B 4.4 21:56:16 10° N 22:01:17 21° NE 22:04:04 17° ENE
SPOT 1/Viking Rocket 3.5 22:01:42 67° SSW 22:02:17 75° WSW 22:07:26 10° NNW
Resurs 01 Rocket 3.8 22:02:02 15° SW 22:03:51 18° W 22:06:55 10° NW
STARLINK-1121 4.3 22:00:43 10° NW 22:03:55 50° WNW 22:03:55 50° WNW
ATLAS CENTAUR R/B 2.2 22:04:18 40° WSW 22:05:27 51° WNW 22:09:37 10° NNE
Cosmos 1553 Rocket 4.5 22:01:42 10° N 22:07:32 42° E 22:07:36 42° E
SL-27 R/B 4.3 22:08:09 10° NNW 22:10:06 30° NNW 22:10:06 30° NNW
NOSS 3-2 (C) 4.2 22:06:36 10° NNW 22:14:27 66° ENE 22:16:47 49° ESE
NOSS 3-4 (A) 4.1 22:10:39 10° SW 22:16:20 49° NW 22:22:16 10° NNE
NOSS 3-4 (C) 4.1 22:10:44 10° SW 22:16:25 50° NW 22:22:23 10° NNE
Cosmos 1486 Rocket 4.0 22:12:14 10° NNW 22:17:11 72° NE 22:17:11 72° NE
Meteor 1-21 4.4 22:19:01 59° SW 22:19:50 67° W 22:25:25 10° N
Cosmos 1656 Rocket 4.1 22:18:59 40° SW 22:20:45 58° WNW 22:26:16 10° NNE
Cosmos 1242 Rocket 4.4 22:22:42 30° NW 22:22:42 30° NW 22:24:58 10° N
Cosmos 1992 Rocket 4.3 22:21:07 55° WSW 22:21:45 59° WNW 22:26:54 10° N
Cosmos 1655 Rocket 4.1 22:25:20 59° E 22:25:20 59° E 22:31:11 10° NNE
Cosmos 2369 Rocket 4.4 22:27:14 10° WSW 22:31:36 22° WNW 22:35:59 10° N
ERS-1 Rocket 3.8 22:39:14 43° W 22:39:14 43° W 22:43:40 10° NNW
ATLAS 2AS CENTAUR R/B 4.2 22:37:01 10° WSW 22:44:16 39° NW 22:51:38 10° NNE
Cosmos 1867 4.1 22:51:21 10° NNW 22:55:40 56° N 22:55:40 56° N
Cosmos 968 Rocket 4.4 22:54:04 10° NNW 22:57:49 42° WNW 22:57:49 42° WNW
COSMOS 2455 4.3 23:04:22 23° W 23:07:03 33° WNW 23:12:26 10° N
ATLAS 3B CENTAUR R/B 3.7 23:04:22 10° W 23:14:10 43° WSW 23:14:10 43° WSW
Exosat Rocket 4.2 23:13:26 10° NNW 23:20:42 73° NNE 23:20:42 73° NNE
Thor Agena Rocket 4.5 23:17:26 10° N 23:21:25 45° NNW 23:21:25 45° NNW
Terra 4.3 23:37:15 15° WNW 23:37:15 15° WNW 23:38:46 10° NW
Cosmos 2315 Rocket 4.4 23:38:33 10° N 23:43:30 59° NNW 23:43:30 59° NNW
CENTAUR R/B 3.8 23:37:28 10° NW 23:45:06 42° WSW 23:45:06 42° WSW
SJ 16-02 4.2 23:44:17 10° NNE 23:45:00 12° NE 23:45:00 12° NE
Cosmos 2297 Rocket 3.8 23:43:59 10° N 23:48:02 26° NE 23:48:02 26° NE
SeaSat 1 3.9 23:47:34 10° N 23:50:50 33° NNW 23:50:50 33° NNW
ATLAS 3B R/B 3.0 23:45:39 10° NNW 23:51:18 60° WNW 23:51:18 60° WNW
